Regional Weather Roundup
Issued by NWS

Home | Current Version | Previous Version | Text Only | Print | Product List | Glossary Off
Versions: 1 2 3 4 5 6 7 8 9 10 11 12 13 14 15 16 17 18 19 20 21 22 23 24 25 26 27 28 29 30 31 32 33 34 35 36 37 38 39 40 41 42 43 44 45 46 47 48 49 50

000
ASUS43 KIND 011259
RWRIN

WEATHER ROUNDUP FOR INDIANA
NATIONAL WEATHER SERVICE INDIANAPOLIS IN
900 AM EDT WED JUL 01 2015

NOTE: "FAIR" INDICATES FEW OR NO CLOUDS BELOW 12,000 FEET WITH NO
SIGNIFICANT WEATHER AND/OR OBSTRUCTIONS TO VISIBILITY.

* - STATION DOES NOT REPORT WEATHER SUCH AS PRECIPITATION OR FOG.

+ - STATION NOT QUALITY CONTROLLED BY THE NATIONAL WEATHER SERVICE.
    USE DATA WITH CAUTION...ESPECIALLY DEWPOINT AND RELATIVE
    HUMIDITY OBSERVATIONS.

INZ001>003-010>013-019-020-011400-
NORTHWEST INDIANA

CITY           SKY/WX    TMP DP  RH WIND       PRES   REMARKS
GARY /AIRPORT/ PTSUNNY  N/A N/A N/A N10       29.97S
LA PORTE +     MOSUNNY   62  56  83 N12       29.96S
RENSSELAER +   MOSUNNY   61  59  94 N7        29.95S

$$

LMZ046-743>745-011400-
SOUTHERN LAKE MICHIGAN

STATION/POSITION TIME  TEMP    WIND        PRES    WAVE
                       AIR SEA DIR/SP/G            HT
                 (UTC) (F)     (DEG/KT/KT) (MB)    (FT)
BURNS HARBOR     1200   58      20/ 12/ 15 1015.2R
MICHIGAN CITY    1200   58     350/ 12/ 15   N/A
5NW MICH CITY    1200   58 65  360/ 10/ 14   N/A     4

$$

INZ004-005-014>016-021>024-011400-
NORTH CENTRAL INDIANA

CITY           SKY/WX    TMP DP  RH WIND       PRES   REMARKS
ELKHART        CLOUDY    59  55  88 NW6       29.95R
GOSHEN         PTSUNNY   59  55  87 NW8       29.94R
SOUTH BEND     MOSUNNY   61  54  77 NW13      29.95R
WARSAW +         N/A     59  55  88 N7        29.94S

$$

INZ006>009-017-018-025>027-011400-
NORTHEAST INDIANA

CITY           SKY/WX    TMP DP  RH WIND       PRES   REMARKS
ANGOLA *+      CLOUDY    57  54  88 NW8       29.93R
AUBURN +       CLOUDY    59  54  82 NW8       29.95R
FORT WAYNE     MOSUNNY   63  56  78 W7        29.94R

$$

INZ028-029-035-036-043>045-051>053-011400-
WEST CENTRAL INDIANA

CITY           SKY/WX    TMP DP  RH WIND       PRES   REMARKS
CRAWFORDSVL +  MOSUNNY   63  57  81 NE3       29.94S
GREENCASTLE +  MOSUNNY   64  55  72 E3        29.95R
LAFAYETTE      SUNNY     63  58  83 N5        29.94S
TERRE HAUTE    PTSUNNY   67  64  90 NE6       29.91F FOG

$$

INZ030>032-037>040-046>048-054>057-064-065-011400-
CENTRAL INDIANA

CITY           SKY/WX    TMP DP  RH WIND       PRES   REMARKS
ANDERSON       SUNNY     63  55  77 N8        29.96
FRANKFORT +    SUNNY     64  64 100 CALM      29.96S
GREENWOOD *+   MOSUNNY   66  57  72 CALM      29.95R
INDIANAPOLIS   MOSUNNY   67  57  70 NE5       29.93R
-EAGLE CREEK   MOSUNNY   67  57  70 VRB3      29.94R
KOKOMO *+      SUNNY     63  57  82 N5        29.94S
MT COMFORT *+  SUNNY     66 N/A N/A N5        29.94S
SHELBYVILLE    MOSUNNY   68  61  78 CALM      29.94R
ZIONSVILLE +   MOSUNNY   64  57  79 NE5       29.95S

$$

INZ033-034-041-042-049-050-058-059-011400-
EAST CENTRAL INDIANA

CITY           SKY/WX    TMP DP  RH WIND       PRES   REMARKS
MUNCIE         SUNNY     63  57  81 N5        29.94R

$$

INZ060-061-067>069-081>083-085>088-011400-
SOUTHWEST INDIANA

CITY           SKY/WX    TMP DP  RH WIND       PRES   REMARKS
EVANSVILLE     CLOUDY    73  69  87 SW6       29.93R FOG
HUNTINGBURG *+ PTSUNNY   70  66  88 S5        29.92S

$$

INZ062-063-066-070>080-084-089>092-011400-
SOUTH CENTRAL AND SOUTHEAST INDIANA

CITY           SKY/WX    TMP DP  RH WIND       PRES   REMARKS
BLOOMINGTON    PTSUNNY   67  63  87 CALM      29.93R
MADISON *+     PTSUNNY   64  63  94 CALM      29.97R
SEYMOUR +      MOSUNNY   66  66 100 CALM      29.94R FOG

$$




USA.gov is the U.S. government's official web portal to all federal, state and local government web resources and services.